Showing default

DEORBITSAIL, 40719

Orbit data source: Space-Track

DEORBITSAIL, 40719 is a payload satellite owned by Surrey Space Ctr (UK) in SSO that was launched on Fri, 10 Jul 2015 UTC via a PSLV-XL launch vehicle from the Sirharikota (SRI). Payload-class satellites include a variety of spacecraft equipped with specific instruments for various scientific and technological missions. These include communications satellites like Starlink; space stations such as the ISS; scientific satellites like the Hubble; Earth observation satellites from companies like Planet Labs, Umbra, and HawkEye 360; GPS; miniature CubeSats for education and research; and military/defense satellites.

Loading next visibility...
Identifier
40719, 2015-032E
Orbit
SSO
Last TLE update
11 hours ago
Origin
Manufacturer
Surrey Space Ctr
Mission
Non-operational Amateur Technology
Bus & Motor
CUBESAT 3U, Unknown motor
Mass
7 kg wet, 7 kg dry
Launch date (UTC)
2015-07-10 (10 years ago)
Launch vehicle
PSLV-XL
Launch site
Sirharikota (SRI)
Object type
Payload
Rocket body
Debris
Shape & HBR
Box + 1 Sail, 3.5 m
Radar Cross Section
0.039 m², Small (<0.1 m²)

Expand to show TLE details & history

TLE from 11 hours ago
0 DEORBITSAIL
1 40719U 15032E   25200.16657606  .00005371  00000-0  46824-3 0  9991
2 40719  97.6409  58.8568 0009073 253.3866 106.6360 14.97251489541305
Epoch: 2025-07-19T03:59Z
TLE epoch observation values (Epoch: 2025-07-19T03:59:52.171Z)
Latitude
-0.00004°
Longitude
61.68185°
Altitude
580.258 km
Speed
7.569 km/s
True Right ascension
03h 55m 25s
True Declination
0° 00' 00"
Sunlit
Object was in daylight at epoch
Visualization orbit readout
Latitude
-82.4002°
Longitude
152.16322°
Altitude
597.753 km
Speed
7.563 km/s
Apparent Right ascension
14h 57m 31s
Apparent Declination
-65° 14' 47"
Sunlit
Object is in daylight
Visualization observer readout
Local Sidereal Time
03:39:34
Azimuth
169.977° S
Elevation
-63.957°
Doppler factor
1
Orbital elements
Apogee altitude
578.706 km
Perigee altitude
566.093 km
Semi-major axis
6,950.536 km
Eccentricity
0.00091
Inclination
97.6409°
RAAN
58.8568°
Arg. of periapsis
253.3866°
True anomaly
106.73558°
Mean anomaly
106.636°
Eccentric anomaly
106.6858°
Mean motion
3.74555 °/min
Orbital period
96.11 mins
BSTAR
0.00046824
Loading maneuver chart data...
Loading SW <> Apogee altitude chart data...
Loading historical data...
Loading historical data...
Loading historical data...
Loading historical data...
Loading historical data...
Loading historical data...
Loading historical data...
Other satellites on launch #32 in the year 2015 (2015-07-10 UTC)
|